Tracking 25734 objects as of 28-May-2022
HD Live streaming from Space Station
objects crossing your sky now

USA 17

Track USA 17 now!
10-day predictions
USA 17 is classified as:


NORAD ID: 16625
Int'l Code: 1986-014F
Perigee: 392.4 km
Apogee: 1,769.3 km
Inclination: 63.3 °
Period: 106.7 minutes
Semi major axis: 7451 km
RCS: Unknown
Launch date: February 9, 1986
Source: United States (US)
Launch site: AIR FORCE WESTERN TEST RANGE (AFWTR)
aabbcc
Your satellite tracking list
Your tracking list is empty




NASA's NSSDC Master Catalog

Two Line Element Set (TLE):
1 16625U 86014F   22147.32069144  .00005037  00000-0  42520-3 0  9995
2 16625  63.2962 130.5357 0923888  88.4871 282.1646 13.49607758140989
Source of the keplerian elements: AFSPC